594  
ASHW40 PHFO 300112  
RWRHI  
 
WEATHER ROUNDUP FOR HAWAII  
NATIONAL WEATHER SERVICE HONOLULU HI  
300 PM HST MON MAY 29 2017  
 
THIS IS AN AUTOMATED REPORT THAT HAS NOT BEEN QUALITY CONTROLLED.  
 
NOTE..."FAIR" INDICATES FEW OR NO CLOUDS BELOW 12,000 FEET WITH NO  
SIGNIFICANT WEATHER AND/OR S TO VISIBILITY
.  
 
* - THESE SITES REPORT LIMITED FIELDS  
 
HIZ001>004-300200-  
KAUAI-NIIHAU-  
 
CITY SKY/WX TMP DP RH WIND PRES REMARKS
 
LIHUE APT MOSUNNY 82 69 64 E8 30.05F  
PORT ALLEN* N/A 82 N/A N/A SE8 N/A  
POIPU* N/A 82 N/A N/A E6 N/A  
PRINCEVILLE* N/A 81 N/A N/A NE8G14 N/A  
KOKOLE POINT* NOT AVBL  
MOLOAA DAIRY* N/A 81 70 69 E6G13 N/A  
WAIMEA HTS* NOT AVBL  
PUU OPAE* NOT AVBL  
PUU LUA* NOT AVBL  
MAKAHA RIDGE* NOT AVBL  

 
 
HIZ005>011-300200-  
OAHU-  
 
CITY SKY/WX TMP DP RH WIND PRES REMARKS
 
HONOLULU PTSUNNY 81 69 67 S10 30.03S  
KALAELOA SUNNY 85 68 56 S7 30.04F  
KANEOHE MCB NOT AVBL  
WHEELER FIELD CLOUDY 77 70 78 NE7 30.04F  
BELLOWS* NOT AVBL  
KAHUKU* NOT AVBL  
WHEELER* NOT AVBL  
WAIANAE HARBOR NOT AVBL  
DILLINGHAM* N/A 88 68 51 S2G9 N/A HX 91  
KAHUKU TRN* N/A 81 68 65 W5G14 N/A  
KAWAILOA* N/A 79 68 69 NE8G15 N/A  
KII* N/A 81 68 65 E9 N/A  
MAKUA RANGE* N/A 84 64 51 SW9G18 N/A  
OAHU FOREST NW NOT AVBL  
SCHOFIELD BRK* N/A 81 66 61 MISG N/A  
SCHOFIELD S* NOT AVBL  
WAIANAE VLY* NOT AVBL  
KUAOKALA* NOT AVBL  
HONOULIUULI* NOT AVBL  
MOKUOLOE IS* NOT AVBL  
PALEHUA* NOT AVBL  
WAIAWA PHB* NOT AVBL  

 
 
HIZ012>013-300200-  
MOLOKAI-  
 
CITY SKY/WX TMP DP RH WIND PRES REMARKS
 
MOLOKAI AIRPT MOSUNNY 83 72 69 N12 30.04F  
KALAUPAPA NOT AVBL  
MAKAPULAPAI* NOT AVBL  
MOLOKAI 1* NOT AVBL  
PUU ALII* NOT AVBL  

 
 
HIZ016-300200-  
KAHOOLAWE-  
 
CITY SKY/WX TMP DP RH WIND PRES REMARKS
 
KAHOOLAWE* NOT AVBL  
HAKIOAWA* NOT AVBL  
HONOKANAIA* N/A 87 70 56 SW5G12 29.98F HX 92  
KANELOA* N/A 79 72 78 S3G12 30.11F  
KEALIALALO* NOT AVBL  
LUA MAKIKA* NOT AVBL  

 
 
HIZ014>015-300200-  
LANAI-  
 
CITY SKY/WX TMP DP RH WIND PRES REMARKS
 
LANAI CITY FAIR 78 68 71 W8 30.09S  
LANAI 1* NOT AVBL  

 
 
HIZ017>028-300200-  
MAUI-  
 
CITY SKY/WX TMP DP RH WIND PRES REMARKS
 
KAHULUI MOSUNNY 84 70 62 N18 30.02F  
KAPALUA-W MAUI PTSUNNY 86 68 54 N13G24 30.02  
HANA AIRPORT MOSUNNY 82 70 65 SE9 30.06S  
HANA* N/A 82 N/A N/A SE7G14 N/A  
HALEAKALA SUMM N/A 54 41 62 SW3 N/A  
MAALAEA BAY* NOT AVBL  
HALEAKALA* NOT AVBL  
KAUPO GAP* NOT AVBL  
KULA 1* N/A 63 59 86 W5 N/A  

 
 
HIZ023>026-300200-  
BIG ISLAND OF HAWAII COAST AND LOWER SLOPES-  
 
CITY SKY/WX TMP DP RH WIND PRES REMARKS
 
KAILUA KONA MOSUNNY 83 70 64 W10 30.01F  
HILO MOSUNNY 80 69 69 E9 30.03F  
HONOKAA* N/A 82 N/A N/A VRB1 N/A  
KAWAIHAE MWT* N/A 84 N/A N/A W7 N/A  
KAWAIHAE* NOT AVBL  
SOUTH POINT* N/A 77 N/A N/A VRB15G22 N/A  
UPOLU AIRPORT* NOT AVBL  
KAMUELA* NOT AVBL  
HAKALAU* N/A 63 56 79 E5G12 N/A  
KALOKO-HONOKO* NOT AVBL  
PALI 2* N/A 68 64 88 NW9G15 N/A  
KEALAKOMO* N/A 81 68 65 E9 N/A  
KAUPULEHU* NOT AVBL  
KAPAPALA* N/A 74 66 76 E3G10 N/A  
LOWER KAHUKU* NOT AVBL  
PUHE CS* NOT AVBL  
PUHO CS* NOT AVBL  
PTA KEAMUKU* N/A 73 63 68 CALM N/A  
WAIKOLOA* NOT AVBL  

 
 
HIZ027>028-300200-  
BIG ISLAND OF HAWAII INTERIOR AND SUMMMITS-  
 
CITY SKY/WX TMP DP RH WIND PRES REMARKS
 
BRADSHAW FIELD MOSUNNY 70 52 51 W13G18 30.35F  
MK VISITOR CEN N/A 55 41 58 W9 N/A  
MAUNA KEA* N/A 39 28 65 SW22G41 N/A WCI 29  
MAUNA LOA* NOT AVBL  
MAUNA LOA 1* NOT AVBL  
PTA KIPUKA* N/A 66 50 55 NW8G14 N/A  
PTA RANGE 17* N/A 66 52 59 NW12G18 N/A  
PTA WEST* N/A N/A N/A N/A NW12G17 N/A  
NENE CABIN* NOT AVBL  
AHUMOA* NOT AVBL  
PTA PORTABLE* NOT AVBL  
PUU MALI* N/A 64 57 77 N7 N/A  

 
 
HIC003-300200-  
NORTHWEST ISLANDS-  
 
CITY SKY/WX TMP DP RH WIND PRES REMARKS
 
MIDWAY ISLAND CLOUDY 75 63 64 S7 30.09F  
MIDWAY NOS* NOT AVBL  
FRENCH FRIGATE NOT AVBL  

 
 
PHZ110>124-180-300200-  
BUOY REPORTS  
 
STATION/POSITION TIME TEMP WIND PRES WAVE SWELL
 
AIR SEA DIR/SP/G HT/PER HT/DIR  
(UTC) (F) (DEG/KT/KT) (MB) (FT/S) (FT/D)  
BUOY 51001 0050 77 76 40/ 4/ 6 1017.4F 4/12 5/190  
BUOY 51101 0050 77 82 20/ 2/ 4 1017.9F 4/13 5/170  
BUOY 51100 NOT AVBL  
BUOY 51002 0050 78 78 60/ 16/ 17 1015.5F 6/11 5/ 80  
BUOY 51003 0050 79 80 80/ 10/ 14 1016.0F 5/13 5/160  
BUOY 51004 0050 78 90/ 14/ 16 1016.4F 6/11 5/ 80  
BARBERS PT BUOY NOT AVBL  
WAIMEA BAY BUOY 0032 79 N/A 4/10 2/ 30  
KAILUA BAY BUOY 0034 80 N/A 4/11 3/ 60  
LANAI BUOY NOT AVBL  
BARBERS PT 2 NOT AVBL  
PAUWELA MAUI 0039 80 N/A 4/11 2/ 40  
HILO 0012 80 N/A 5/10 2/ 60  
KANEOHE BAY BUOY 0055 80 N/A 3/11 2/ 50  
HANALEI KAUAI 0052 80 N/A 3/ 9 2/ 40  
KAHULUI HARBOR 0042 78 81 10/ 10/ 12 1016.8F  
HONOLULU HARBOR 0042 81 80 230/ 5/ 6 1017.4R  
KILO NALU NOT AVBL  
HILO HARBOR 0042 89 78 130/ 4/ 9 1016.8F  
MOKUOLOE 0036 78 81 360/ 6/ 8 1017.4S  
NAWILIWILI 0042 79 81 80/ 6/ 9 1017.1F  
WHOTS BUOY NOT AVBL  
BUOY 51028 NOT AVBL  

 
   
.....................KEY.....................................
 
 
SKY/WX - SKY CONDITIONS/PRESENT WEATHER  
TMP - TEMPERATURE IN FAHRENHEIT  
DWPT - DEWPOINT IN FAHRENHEIT  
RH - RELATIVE HUMIDITY IN PERCENT  
WIND - DIRECTION AND SPEED /MPH FOR ISLANDS...KTS FOR BUOYS/  
PRES - MEAN SEA LEVEL PRESSURE IN INCHES OF HG  
VSB - VISIBILITY IN MILES  
HX - HEAT INDEX  
WCI - WIND CHILL INDEX  
VRB - VARIABLE WIND DIRECTION  
N/A - NOT AVAILABLE  
 
 
CLICK HERE TO GO TO PREVIOUS BULLETINS.

The Nexlab HI Page Main Text Page